Caro, MI

4:01 AM EDT on September 18, 2019 (GMT -0400)
Caro

Weather History for KCFS - August, 2019

Change the Weather History Date:

Thursday, August 22, 2019

  Actual Average (WUND) Record (WUND)
Temperature  
Mean Temperature 64 °F -  
Max Temperature 73 °F - - (-1)
Min Temperature 55 °F - - (-1)
Growing Degree Days 14 (Base 50)    
Moisture  
Dew Point 52 °F    
Average Humidity 65    
Maximum Humidity 92    
Minimum Humidity 39    
Precipitation  
Precipitation 0.00 in - - ()
Sea Level Pressure  
Sea Level Pressure 30.02 in    
Wind  
Wind Speed 2 mph (NNW)    
Max Wind Speed 12 mph    
Max Gust Speed 17 mph    
Visibility 10 miles    
Events      
Averages and records for this station are not official NWS values.
T = Trace of Precipitation, MM = Missing Value Source: NWS Daily Summary

Daily Weather History Graph

Daily Weather History Graph

Search for Another Location

Airport or City:

Astronomy

Aug. 22, 2019 Rise Set
Actual Time 6:46 AM EDT 8:26 PM EDT
Civil Twilight 6:16 AM EDT 8:56 PM EDT
Nautical Twilight 5:39 AM EDT 9:33 PM EDT
Astronomical Twilight 4:59 AM EDT 10:12 PM EDT
Moon No Moon Rise 1:32 PM EDT (8/22)
Length of Visible Light 14h 40m
Length of Day
13h 39m
Waning Gibbous, 60% of the Moon is Illuminated
Aug 22
Waning Gibbous
Aug 23
Last Quarter
Aug 30
New
Sep 5
First Quarter
Sep 14
Full

Hourly Weather History & Observations

Time (EDT) Temp. Dew Point Humidity Pressure Visibility Wind Dir Wind Speed Gust Speed Precip Events Conditions
12:17 AM 64.4 °F 62.1 °F 92% 29.96 in 10.0 mi Calm Calm - N/A   Clear
12:35 AM 63.9 °F 61.5 °F 92% 29.96 in 10.0 mi Calm Calm - N/A   Clear
12:55 AM 63.9 °F 61.5 °F 92% 29.97 in 10.0 mi North 3.5 mph - N/A   Scattered Clouds
12:56 AM 64.0 °F 61.7 °F 92% 29.97 in 10.0 mi North 3.5 mph - N/A   Scattered Clouds
1:15 AM 65.7 °F 58.6 °F 78% 29.97 in 10.0 mi NE 5.8 mph - N/A   Scattered Clouds
1:20 AM 65.7 °F 57.0 °F 74% 29.97 in 10.0 mi NNE 3.5 mph - N/A   Scattered Clouds
1:38 AM 64.4 °F 55.9 °F 74% 29.97 in 10.0 mi Calm Calm - N/A   Clear
1:56 AM 63.9 °F 56.1 °F 76% 29.97 in 10.0 mi Calm Calm - N/A   Clear
2:15 AM 63.1 °F 57.9 °F 83% 29.97 in 10.0 mi Calm Calm - N/A   Scattered Clouds
2:16 AM 62.8 °F 57.9 °F 84% 29.97 in 10.0 mi Calm Calm - N/A   Scattered Clouds
2:35 AM 62.1 °F 57.9 °F 86% 29.97 in 10.0 mi Calm Calm - N/A   Clear
2:36 AM 62.1 °F 58.1 °F 87% 29.97 in 10.0 mi Calm Calm - N/A   Clear
2:59 AM 61.3 °F 57.0 °F 86% 29.97 in 10.0 mi Calm Calm - N/A   Clear
3:17 AM 61.9 °F 58.1 °F 87% 29.98 in 10.0 mi Calm Calm - N/A   Clear
3:35 AM 60.6 °F 56.8 °F 87% 29.97 in 10.0 mi Calm Calm - N/A   Clear
3:36 AM 60.8 °F 57.0 °F 87% 29.98 in 10.0 mi Calm Calm - N/A   Clear
3:55 AM 61.0 °F 55.0 °F 81% 29.98 in 10.0 mi Calm Calm - N/A   Clear
3:56 AM 61.0 °F 55.2 °F 81% 29.98 in 10.0 mi Calm Calm - N/A   Clear
4:15 AM 61.2 °F 56.5 °F 85% 29.98 in 10.0 mi Calm Calm - N/A   Clear
4:38 AM 61.2 °F 56.7 °F 85% 29.98 in 10.0 mi Calm Calm - N/A   Clear
4:56 AM 59.9 °F 55.9 °F 87% 29.98 in 10.0 mi Calm Calm - N/A   Clear
5:15 AM 61.2 °F 55.8 °F 82% 29.98 in 10.0 mi Calm Calm - N/A   Scattered Clouds
5:16 AM 61.2 °F 55.6 °F 82% 29.98 in 10.0 mi Calm Calm - N/A   Scattered Clouds
5:35 AM 60.4 °F 55.2 °F 83% 29.98 in 10.0 mi Calm Calm - N/A   Scattered Clouds
6:17 AM 59.4 °F 54.3 °F 83% 29.99 in 10.0 mi Calm Calm - N/A   Clear
6:35 AM 58.6 °F 51.8 °F 78% 29.99 in 10.0 mi NNW 3.5 mph - N/A   Clear
6:36 AM 58.8 °F 51.6 °F 77% 29.99 in 10.0 mi NNW 3.5 mph - N/A   Clear
6:55 AM 59.4 °F 51.1 °F 74% 30.00 in 10.0 mi NNW 4.6 mph - N/A   Clear
7:38 AM 59.2 °F 51.8 °F 77% 30.01 in 10.0 mi Calm Calm - N/A   Clear
7:56 AM 59.7 °F 52.3 °F 77% 30.01 in 10.0 mi Calm Calm - N/A   Clear
8:15 AM 61.0 °F 53.1 °F 75% 30.02 in 10.0 mi Calm Calm - N/A   Clear
8:35 AM 61.9 °F 52.2 °F 70% 30.02 in 10.0 mi Calm Calm - N/A   Clear
8:59 AM 64.8 °F 51.3 °F 62% 30.03 in 10.0 mi NNW 4.6 mph - N/A   Clear
9:17 AM 65.5 °F 50.9 °F 59% 30.03 in 10.0 mi North 3.5 mph - N/A   Clear
9:36 AM 66.9 °F 50.7 °F 56% 30.03 in 10.0 mi NW 5.8 mph - N/A   Clear
9:55 AM 67.5 °F 50.4 °F 54% 30.03 in 10.0 mi NW 5.8 mph - N/A   Clear
10:15 AM 68.0 °F 49.1 °F 51% 30.03 in 10.0 mi North 8.1 mph - N/A   Clear
10:38 AM 69.1 °F 48.0 °F 47% 30.03 in 10.0 mi North 9.2 mph - N/A   Clear
10:56 AM 69.4 °F 48.6 °F 47% 30.03 in 10.0 mi North 8.1 mph - N/A   Clear
11:15 AM 69.8 °F 49.5 °F 48% 30.04 in 10.0 mi NW 5.8 mph - N/A   Clear
11:16 AM 70.0 °F 49.5 °F 48% 30.04 in 10.0 mi NW 6.9 mph - N/A   Clear
11:35 AM 70.2 °F 48.2 °F 46% 30.04 in 10.0 mi North 5.8 mph - N/A   Clear
11:59 AM 70.7 °F 48.6 °F 45% 30.04 in 10.0 mi NNW 6.9 mph - N/A   Clear
12:17 PM 70.7 °F 48.7 °F 46% 30.05 in 10.0 mi NNE 3.5 mph - N/A   Scattered Clouds
12:35 PM 70.9 °F 48.2 °F 44% 30.04 in 10.0 mi NW 5.8 mph - N/A   Scattered Clouds
12:56 PM 72.1 °F 49.3 °F 44% 30.03 in 10.0 mi NW 9.2 mph - N/A   Clear
1:15 PM 72.5 °F 50.5 °F 46% 30.04 in 10.0 mi NNW 4.6 mph - N/A   Scattered Clouds
1:20 PM 72.9 °F 50.7 °F 46% 30.04 in 10.0 mi NNW 6.9 mph - N/A   Clear
1:38 PM 71.6 °F 49.3 °F 45% 30.04 in 10.0 mi NNW 9.2 mph - N/A   Clear
1:56 PM 72.3 °F 49.8 °F 45% 30.04 in 10.0 mi NW 4.6 mph - N/A   Clear
2:15 PM 73.0 °F 49.5 °F 43% 30.04 in 10.0 mi NNW 10.4 mph 17.3 mph N/A   Clear
2:16 PM 72.9 °F 49.5 °F 44% 30.04 in 10.0 mi NNW 11.5 mph 17.3 mph N/A   Clear
2:35 PM 72.5 °F 49.1 °F 44% 30.04 in 10.0 mi NW 8.1 mph - N/A   Clear
2:59 PM 73.6 °F 50.0 °F 43% 30.05 in 10.0 mi NNW 9.2 mph - N/A   Scattered Clouds
3:17 PM 72.7 °F 49.3 °F 44% 30.04 in 10.0 mi NW 3.5 mph - N/A   Clear
3:36 PM 71.2 °F 48.4 °F 44% 30.04 in 10.0 mi NNW 6.9 mph - N/A   Scattered Clouds
3:55 PM 72.7 °F 49.1 °F 43% 30.04 in 10.0 mi NNW 8.1 mph - N/A   Scattered Clouds
4:15 PM 73.4 °F 49.1 °F 42% 30.04 in 10.0 mi North 5.8 mph - N/A   Scattered Clouds
4:38 PM 73.6 °F 47.5 °F 39% 30.03 in 10.0 mi NNW 4.6 mph - N/A   Clear
4:56 PM 73.6 °F 48.4 °F 41% 30.03 in 10.0 mi NW 4.6 mph - N/A   Scattered Clouds
5:15 PM 70.9 °F 46.6 °F 42% 30.03 in 10.0 mi NNW 5.8 mph - N/A   Mostly Cloudy
5:35 PM 73.0 °F 48.6 °F 42% 30.03 in 10.0 mi North 3.5 mph - N/A   Overcast
5:59 PM 70.9 °F 47.1 °F 43% 30.03 in 10.0 mi NNW 6.9 mph - N/A   Mostly Cloudy
6:17 PM 71.6 °F 47.5 °F 42% 30.02 in 10.0 mi NNW 3.5 mph - N/A   Overcast
6:35 PM 69.8 °F 48.0 °F 46% 30.03 in 10.0 mi Calm Calm - N/A   Mostly Cloudy
6:55 PM 69.4 °F 49.6 °F 49% 30.03 in 10.0 mi Calm Calm - N/A   Overcast
7:15 PM 68.4 °F 49.3 °F 50% 30.03 in 10.0 mi Calm Calm - N/A   Overcast
7:20 PM 68.4 °F 49.5 °F 51% 30.03 in 10.0 mi Calm Calm - N/A   Overcast
7:56 PM 67.5 °F 50.7 °F 55% 30.04 in 10.0 mi Calm Calm - N/A   Scattered Clouds
8:35 PM 61.9 °F 52.7 °F 72% 30.05 in 10.0 mi Calm Calm - N/A   Clear
8:59 PM 60.4 °F 52.3 °F 75% 30.06 in 10.0 mi Calm Calm - N/A   Mostly Cloudy
9:17 PM 63.1 °F 51.1 °F 65% 30.07 in 10.0 mi Calm Calm - N/A   Overcast
9:35 PM 62.8 °F 51.6 °F 67% 30.07 in 10.0 mi Calm Calm - N/A   Overcast
9:36 PM 62.8 °F 51.4 °F 66% 30.07 in 10.0 mi Calm Calm - N/A   Overcast
10:15 PM 61.3 °F 52.5 °F 73% 30.07 in 10.0 mi Calm Calm - N/A   Scattered Clouds
10:38 PM 60.8 °F 52.9 °F 75% 30.07 in 10.0 mi East 3.5 mph - N/A   Clear
10:56 PM 59.9 °F 52.9 °F 78% 30.08 in 10.0 mi ENE 3.5 mph - N/A   Clear
11:15 PM 59.4 °F 53.2 °F 80% 30.08 in 10.0 mi Calm Calm - N/A   Clear
11:16 PM 59.4 °F 53.2 °F 80% 30.08 in 10.0 mi Calm Calm - N/A   Clear
11:35 PM 56.3 °F 52.5 °F 87% 30.08 in 10.0 mi Calm Calm - N/A   Clear
11:59 PM 55.4 °F 52.2 °F 89% 30.08 in 10.0 mi Calm Calm - N/A   Clear